Flag Weather past 2 weeks in Cairns, Queensland, Australia

Now
84 °F

Passing clouds.


Feels Like: 87 °F
Forecast: 75 / 89 °F
Wind: 18 mph from Southeast

Location: Cairns Airport

Current Time: Nov 28, 2014 at 5:36:04 PM

Latest Report: Nov 28, 2014 at 5:00 PM


Visibility: N/A

Pressure: 29.83 "Hg

Humidity: 55%

Dew point: 66 °F

Location of CairnsLocation

Historic Weather in Cairns — Graph

°F

Cairns temperature yesterday

Maximum temperature yesterday: 90 °F (at 11:30 AM)
Minimum temperature yesterday: 73 °F (at 1:00 AM)
Average temperature yesterday: 81 °F

Past Weeks' High & Low Weather Summary

 TemperatureHumidityPressure
High91 °F (Nov 24, 12:30 PM)100% (Nov 17, 4:00 AM)30.01 "Hg (Nov 17, 4:00 AM)
Low66 °F (Nov 16, 5:00 AM)33% (Nov 14, 12:00 PM)29.80 "Hg (Nov 16, 3:30 PM)
Average80 °F69%29.90 "Hg
* Reported Nov 13 4:00 PM — Nov 28 4:00 PM, Cairns, Weather by CustomWeather, © 2014

Note: Actual official high and low records may vary slightly from our data, if they occured in-between our weather recording intervals... More about our weather records

Advertising

Cairns weather history for previous 24 hours

 ConditionsComfort  
Time TempWeatherWind HumidityBarometerVisibility
4:00 PM
Nov 28
84 °FScattered clouds.22 mph58%29.83 "HgN/A
3:30 PM86 °FPartly sunny.16 mph49%29.83 "HgN/A
3:00 PM86 °FScattered clouds.15 mph52%29.83 "HgN/A
2:30 PM88 °FScattered clouds.21 mph49%29.83 "HgN/A
2:00 PM90 °FScattered clouds.17 mph46%29.83 "HgN/A
1:00 PM90 °FPassing clouds.13 mph38%29.83 "HgN/A
12:00 PM90 °FPassing clouds.14 mph41%29.86 "HgN/A
11:30 AM88 °FPassing clouds.12 mph46%29.86 "HgN/A
11:00 AM90 °FPassing clouds.13 mph43%29.89 "HgN/A
10:30 AM88 °FPassing clouds.13 mph43%29.89 "HgN/A
10:00 AM88 °FPassing clouds.10 mph46%29.89 "HgN/A
9:00 AM82 °FPassing clouds.10 mph62%29.89 "HgN/A
8:00 AM77 °FSprinkles. Partly sunny.12 mph79%29.89 "HgN/A
7:30 AM79 °FScattered clouds.8 mph70%29.89 "HgN/A
7:00 AM77 °FPassing clouds.10 mph74%29.89 "HgN/A
6:30 AM77 °FPassing clouds.9 mph74%29.86 "HgN/A
6:00 AM75 °FPassing clouds.9 mph78%29.86 "HgN/A
5:30 AM75 °FPassing clouds.8 mph78%29.86 "HgN/A
5:00 AM75 °FClear.7 mph78%29.86 "HgN/A
4:30 AM75 °FPassing clouds.7 mph78%29.86 "HgN/A
4:00 AM77 °FPassing clouds.7 mph74%29.86 "HgN/A
3:30 AM73 °FPassing clouds.9 mph78%29.83 "HgN/A
3:00 AM75 °FPassing clouds.8 mph78%29.83 "HgN/A
2:30 AM75 °FPassing clouds.7 mph74%29.83 "HgN/A
2:00 AM73 °FSprinkles. Overcast.9 mph83%29.83 "HgN/A
1:30 AM75 °FPassing clouds.10 mph74%29.86 "HgN/A
1:00 AM75 °FClear.7 mph74%29.86 "HgN/A
12:30 AM75 °FPassing clouds.8 mph74%29.86 "HgN/A
12:00 AM75 °FClear.8 mph74%29.86 "HgN/A
11:00 PM
Nov 27
77 °FClear.10 mph69%29.89 "HgN/A
10:30 PM77 °FClear.9 mph69%29.89 "HgN/A
10:00 PM77 °FPassing clouds.9 mph69%29.89 "HgN/A
9:30 PM77 °FPassing clouds.9 mph74%29.89 "HgN/A
9:00 PM77 °FPassing clouds.10 mph74%29.86 "HgN/A
8:30 PM79 °FClear.14 mph70%29.86 "HgN/A
8:00 PM79 °FClear.10 mph70%29.86 "HgN/A
7:30 PM79 °FPassing clouds.9 mph70%29.86 "HgN/A
7:00 PM79 °FPassing clouds.10 mph65%29.86 "HgN/A
6:00 PM82 °FPassing clouds.14 mph58%29.83 "HgN/A
5:30 PM82 °FPassing clouds.15 mph62%29.83 "HgN/A
5:00 PM84 °FPassing clouds.17 mph55%29.80 "HgN/A
Weather by CustomWeather, © 2014

See weather overviewHow to use our weather pages